#timestamp,LO_Frequency,Hit,StdDev 
1604883615.1,286046998.9,N
1604883635.8,286046999.3,P
1604883655.7,286046998.5,P
1604883675.5,286046997.5,Y
1604883695.4,286046994.0,P
1604883715.2,286046989.1,P
1604883735.0,286046989.5,N
1604883735.9,286046989.5,N
1604883755.8,286046987.4,Y
1604883775.6,286046996.9,P
1604883795.5,286046996.6,N
1604883815.3,286047001.2,N
1604883835.1,286047003.2,N
1604883855.9,286047009.5,N
1604883875.7,286047008.2,N
1604883895.5,286047011.1,N
1604883915.4,286047011.2,N
1604883935.2,286047012.0,N
1604883955.0,286047012.8,N
1604883955.9,286047012.8,N
1604883975.8,286047014.3,N
1604883995.6,286047015.0,N
1604884015.5,286047017.0,N
1604884035.3,286047019.3,N
1604884055.1,286047020.0,N
1604884075.9,286047015.2,N
1604884095.7,286047013.2,N
1604884115.6,286047015.5,N
1604884135.4,286047009.8,N
1604884155.2,286047010.7,N
1604884175.1,286047007.7,N
1604884176.0,286047007.7,N
1604884195.8,286047010.1,N
1604884215.6,286047011.1,N
1604884235.5,286047010.4,N
1604884255.3,286047009.2,N
1604884275.2,286047003.1,N
1604884295.9,286047002.1,N
1604884315.7,286047003.8,N
1604884335.6,286047001.8,N
1604884355.4,286046999.9,N
1604884375.2,286047000.8,N
1604884395.1,286046996.7,N
1604884396.0,286046996.7,N
1604884415.8,286046997.1,N
1604884435.7,286046999.1,N
1604884455.5,286046998.8,N
1604884475.3,286047000.3,N
1604884495.2,286047001.9,N
1604884515.0,286047002.0,N
1604884515.9,286047002.0,N
1604884535.7,286047001.8,N
1604884555.6,286047001.3,N
1604884575.4,286047003.6,N
1604884595.3,286047004.8,N
1604884615.1,286047004.5,N
1604884616.0,286047004.5,N
1604884635.8,286047003.8,N
1604884655.7,286047003.2,N
1604884675.5,286047005.6,N
1604884695.3,286047005.5,N
1604884715.2,286047003.0,N
1604884735.0,286047003.3,N
1604884735.9,286047003.3,N
1604884755.8,286047005.8,N
1604884775.6,286047006.6,N
1604884795.4,286047012.4,Y
1604884815.3,286047007.7,P
1604884835.1,286047013.0,P
1604884855.9,286047011.1,N
1604884875.7,286047013.9,Y
1604884895.5,286047005.4,P
1604884915.4,286047008.3,P
1604884935.2,286047006.2,P
1604884955.0,286047005.4,Y
1604884955.9,286047005.4,P
1604884975.8,286046999.3,N
1604884995.6,286046997.8,N
1604885015.5,286046998.7,N
1604885035.3,286047001.1,N
1604885055.1,286047002.8,N
1604885075.9,286047000.7,N
1604885095.7,286047003.8,N
1604885115.5,286047007.6,N
1604885135.4,286047006.4,N
1604885155.2,286047006.3,N
1604885175.1,286047007.2,N
1604885176.0,286047007.2,N
1604885195.8,286047009.1,N
1604885215.6,286047006.3,N
1604885235.5,286047008.7,N
1604885255.3,286047003.8,N
1604885275.1,286047001.3,N
1604885295.9,286047001.9,N
1604885315.7,286047000.0,N
1604885335.6,286046995.3,N
1604885355.4,286046992.9,N
1604885375.2,286046989.8,N
1604885395.1,286046987.4,N
1604885396.0,286046987.4,N
1604885415.8,286046987.1,N
1604885435.6,286046988.4,N
1604885455.5,286046992.0,N
1604885475.3,286046993.9,N
1604885495.2,286046996.0,N
1604885515.9,286046995.1,N
1604885535.7,286046994.8,N
1604885555.6,286046995.8,N
1604885575.4,286046994.9,N
1604885595.2,286046996.3,N
1604885615.1,286046990.8,N
1604885616.0,286046990.8,N
1604885635.8,286046990.0,N
1604885655.7,286046989.4,N
1604885675.5,286046988.5,N
1604885695.3,286046988.5,N
1604885715.2,286046993.0,N
1604885735.0,286046995.1,N
1604885735.9,286046995.1,N
1604885755.8,286046995.8,N
1604885775.6,286046997.8,N
1604885795.4,286046995.0,N
1604885815.3,286046997.9,N
1604885835.1,286046996.7,N
1604885836.0,286046996.7,N
1604885855.8,286047000.6,N
1604885875.7,286047001.9,N
1604885895.5,286047002.6,N
1604885915.4,286047007.0,N
1604885935.2,286047005.0,N
1604885955.0,286047004.3,N
1604885955.9,286047004.3,N
1604885975.8,286047006.8,N
1604885995.6,286047006.9,N
1604886015.4,286047007.6,N
1604886035.3,286047006.5,N
1604886055.1,286047009.2,N
1604886075.9,286047008.5,N
1604886095.7,286047006.2,N
1604886115.5,286047007.5,N
1604886135.4,286047006.3,N
1604886155.2,286047007.1,N
1604886175.0,286047006.1,N
1604886175.9,286047006.1,N
1604886195.8,286047008.4,N
1604886215.6,286047006.1,N
1604886235.5,286047006.8,N
1604886255.3,286047006.9,N
1604886275.1,286047008.9,N
1604886295.9,286047006.3,N
1604886315.7,286047003.5,N
1604886335.5,286047006.3,N
1604886355.4,286047004.5,N
1604886375.2,286047003.4,N
1604886395.1,286047007.1,N
1604886396.0,286047007.1,Y
1604886415.8,286047003.7,P
1604886435.6,286047007.6,P
1604886455.5,286047009.2,P
1604886475.3,286047012.4,Y
1604886495.1,286047002.8,P
1604886515.9,286046997.7,N
1604886535.7,286046999.3,N
1604886555.6,286046999.9,N
1604886575.4,286046999.5,N
1604886595.2,286046998.0,N
1604886615.1,286046993.3,N
1604886616.0,286046993.3,N
1604886635.8,286046997.6,N
1604886655.6,286046999.7,N
1604886675.5,286047004.0,N
1604886695.3,286047002.4,N
1604886715.2,286046998.9,N
1604886735.9,286047001.1,N
1604886755.7,286047001.9,N
1604886775.6,286047003.4,N
1604886795.4,286047003.6,N
1604886815.2,286047005.1,N
1604886835.1,286047006.6,N
1604886836.0,286047006.6,N
1604886855.8,286047009.0,N
1604886875.7,286047004.5,N
1604886895.5,286047004.4,N
1604886915.3,286047002.2,N
1604886935.2,286046999.1,N
1604886955.0,286046999.4,N
1604886955.9,286046999.4,N
1604886975.8,286047000.2,N
1604886995.6,286046998.9,N
1604887015.4,286047002.6,N
1604887035.3,286047002.2,N
1604887055.1,286047004.4,N
1604887075.8,286047004.4,N
1604887095.7,286047004.3,N
1604887115.5,286047003.6,N
1604887135.4,286047002.9,N
1604887155.2,286047005.1,N
1604887175.0,286047004.5,N
1604887175.9,286047004.5,N
1604887195.8,286047006.8,N
